Location: Del Amo
(33.8464°N, 118.2104°W)
Time: 18:51:30
(UTC+00:00)

Vanguard 3 - Pass Details

Date: 21 September 2024
Orbit: 507 x 3224 km, 33.4° (Epoch: 05 October)

Event Time Altitude Azimuth Distance (km) Brightness Sun altitude
Rises 10:36:12 0° 210° (SSW) 5,113 - -37.4°
Reaches altitude 10° 10:39:26 10° 202° (SSW) 4,460 - -36.8°
Exits shadow 10:45:17 29° 179° (S) 3,671 10.1 -35.8°
Maximum altitude 10:51:28 39° 139° (SE) 3,612 10.3 -34.6°
Drops below altitude 10° 11:08:06 10° 79° (E) 6,136 12.4 -31.6°
Sets 11:13:28 0° 73° (ENE) 7,177 13.1 -30.5°
